[[{"header":{"parameterUnit":"m.s-1","parameterCategory":1,"la1":30.2991,"la2":30.254,"lo1":-89.0895,"lo2":-89.0444,"dy":0.0017,"dx":0.0017,"nx":28,"ny":28,"refTime":"2025-05-21T21:00:00:Z","depth":0,"parameterNumber":2,"parameterNumberName":"U-component_of_WINDS"},"data":[0,0,0,0,0,0,0,0,0,0,0,0,0,0,0,0,0,0,0,0,0,0,0,0,0,0,0,0,0,0,0,0,0,0,0,0,0,0,0,0,0,0,0,0,0,0,0,0,0,0,0,0,0,0,0,0,0,0,0.936,0.9361,0,0.9404,0.9404,0.9405,0.9388,0.9387,0.9386,0.9385,0.9429,0.9431,0.9433,0,0,0,0,0,0,0,0,0,0,0,0,0,0.9262,0.9264,0.936,0.9361,0.9362,0.9404,0.9404,0.9405,0.9388,0.9387,0.9386,0.9385,0.9428,0.9431,0.9433,0,0,0,0,0,0,0,0,0,0,0,0,0,0.9305,0.9265,0.936,0.9358,0.9359,0.9403,0.9404,0.9405,0.9389,0.9387,0.9386,0.9384,0.9427,0.943,0.9434,0.9483,0,0,0.9443,0.9445,0,0,0,0,0,0,0,0,0.9303,0.9309,0.9358,0.9359,0.9359,0.9389,0.9386,0.9431,0.9389,0.9377,0.9385,0.9383,0.9417,0.9421,0.9432,0.9485,0.9487,0.9443,0.9445,0.9447,0.9448,0,0,0,0,0,0,0,0.93,0.9307,0.9378,0.9359,0.9359,0.9355,0.9359,0.9394,0.9405,0.9378,0.9377,0.9382,0.9417,0.9429,0.9433,0.9487,0.9443,0.9446,0.9448,0.9449,0.9581,0.9583,0,0,0,0,0,0,0.9297,0.9305,0.9376,0.9379,0.9327,0.9358,0.9363,0.9381,0.9404,0.9407,0.9384,0.9381,0.9424,0.9429,0.9434,0.9493,0.9447,0.945,0.9451,0.958,0.9582,0.9584,0,0,0,0,0,0,0.9295,0.9303,0.9374,0.9341,0.935,0.9361,0.9382,0.9382,0.9395,0.9409,0.941,0.9394,0.9424,0.943,0.9471,0.9494,0.9451,0.9454,0.9578,0.958,0.9583,0.961,0,0,0,0,0,0,0.9292,0.9303,0.9322,0.9342,0.9352,0.941,0.9383,0.9384,0.94,0.9398,0.9419,0.9421,0.9423,0.9466,0.9474,0.9498,0.9456,0.9576,0.9579,0.9582,0.9607,0.9613,0.9618,0,0,0,0,0,0.9289,0.9328,0.9323,0.9332,0.9376,0.9412,0.9417,0.9419,0.9402,0.9421,0.943,0.942,0.949,0.947,0.9479,0.9504,0.9574,0.9578,0.9582,0.9605,0.9612,0.9618,0,0,0,0,0,0,0.931,0.9331,0.9325,0.9372,0.939,0.9409,0.9433,0.9427,0.9449,0.9446,0.9447,0.9452,0.9493,0.9503,0.948,0.9552,0.953,0.9535,0.9544,0.9552,0.9557,0.9553,0.9459,0,0,0,0,0,0.9321,0.9348,0.9364,0.9404,0.9414,0.9422,0.9437,0.9437,0.9455,0.9463,0.9475,0.9493,0.9519,0.9536,0.9561,0.9609,0.9613,0.963,0.9636,0.964,0.9645,0.967,0.9678,0.9596,0.9596,0.9595,0,0,0.9342,0.9357,0.9374,0.9409,0.9423,0.9451,0.9428,0.9459,0.9479,0.9467,0.9506,0.9515,0.9536,0.958,0.96,0.9589,0.9668,0.9645,0.9648,0.9651,0.9675,0.9682,0.9689,0.9598,0.9598,0.9597,0,0,0.9396,0.941,0.9444,0.9458,0.948,0.9485,0.9493,0.9512,0.9518,0.9557,0.9548,0.9572,0.9617,0.9632,0.9645,0.9703,0.9695,0.9711,0.974,0.9765,0.9771,0.9777,0.9797,0.9804,0.9716,0.9716,0.9716,0,0.9419,0.9461,0.9462,0.9494,0.9509,0.9499,0.9534,0.9547,0.9576,0.9586,0.9574,0.9629,0.9643,0.969,0.9704,0.9715,0.9724,0.9709,0.9771,0.9776,0.9782,0.98,0.9808,0.9718,0.9718,0.9718,0.9717,0,0.9489,0.9519,0.9544,0.9571,0.9589,0.9622,0.9627,0.9645,0.9643,0.9649,0.9689,0.9704,0.9731,0.9743,0.9741,0.9789,0.9782,0.977,0.9747,0.9791,0.9809,0.9816,0.972,0.972,0.9719,0.9719,0,0,0.9557,0.9584,0.9594,0.9605,0.9628,0.965,0.9682,0.9709,0.9724,0.9744,0.977,0.9808,0.9797,0.9812,0.9812,0.9834,0.9878,0.9819,0.982,0.9829,0.9931,0.9939,0.9947,0.9873,0.9874,0.9875,0.9929,0,0.9611,0.9668,0.9669,0.972,0.9747,0.9738,0.9765,0.9782,0.9789,0.9812,0.9819,0.9845,0.983,0.9838,0.986,0.9868,0.9898,0.9864,0.9896,0.9897,0.9891,0.9957,0.9966,1.0016,0.9936,0.9937,0.9938,0,0.9682,0.9704,0.9758,0.9776,0.9787,0.9812,0.9836,0.9858,0.9876,0.988,0.9896,0.9893,0.9925,0.9902,0.9945,0.9922,0.9936,0.9942,0.9944,0.9946,0.992,0.996,1.0032,1.0039,0.9949,0.9948,0.9947,0,0.9725,0.9768,0.9805,0.9816,0.9838,0.9855,0.9865,0.9882,0.9898,0.9919,0.9929,0.9954,0.9967,0.9986,0.9989,0.9972,1.0033,1.001,1.0036,1.0035,1.0048,1.0047,1.0122,1.0058,1.0058,1.0058,1.0058,0,0.9785,0.9818,0.9824,0.9847,0.9884,0.9885,0.9921,0.993,0.9945,0.9969,0.9963,0.9986,0.9989,1.0012,1.0015,1.005,1.0056,1.0059,1.0059,1.0059,1.0059,1.0067,1.0064,1.006,1.006,1.0059,1.0059,0,0.9838,0.9844,0.9884,0.9902,0.9907,0.9933,0.9948,0.997,0.9976,1.0006,1.0013,1.0023,1.005,1.0055,1.0087,1.0089,1.013,1.0128,1.0124,1.0123,1.0148,1.0146,1.0231,1.0242,1.0172,1.0172,1.0173,0,0.9876,0.9901,0.9921,0.9937,0.9947,0.9973,0.9989,0.9991,1.0008,1.003,1.0049,1.0075,1.0097,1.014,1.015,1.0174,1.0171,1.0199,1.0175,1.0174,1.017,1.0169,1.0171,1.0204,1.0204,1.0205,1.0206,0,0.9941,0.9942,0.9965,0.999,1.0009,1.0028,1.0046,1.0059,1.0063,1.0082,1.011,1.0127,1.0159,1.0185,1.0209,1.0219,1.0213,1.0213,1.022,1.022,1.0217,1.0218,1.0136,1.0211,1.0211,1.021,1.021,1.021,0.9987,1.0008,1.0025,1.0051,1.0065,1.0082,1.0103,1.0111,1.0134,1.0161,1.0161,1.0191,1.0208,1.024,1.0252,1.0275,1.0266,1.0276,1.0279,1.0281,1.0283,1.0214,1.0279,1.0279,1.0279,1.0279,1.0279,0,1.005,1.0061,1.0085,1.011,1.013,1.0123,1.0142,1.016,1.0186,1.0203,1.0224,1.0255,1.028,1.0292,1.0316,1.0333,1.033,1.0339,1.0337,1.034,1.029,1.0281,1.034,1.034,1.034,1.034,1.034,1.034,1.0086,1.0122,1.0125,1.0168,1.0178,1.0207,1.0219,1.0234,1.0247,1.0283,1.0304,1.0311,1.0325,1.0351,1.0374,1.0376,1.0385,1.0395,1.0396,1.035,1.0343,1.0337,1.0329,1.0397,1.0397,1.0444,1.0444,1.0445]},{"header":{"parameterUnit":"m.s-1","parameterCategory":1,"la1":30.2991,"la2":30.254,"lo1":-89.0895,"lo2":-89.0444,"dy":0.0017,"dx":0.0017,"nx":28,"ny":28,"refTime":"2025-05-21T21:00:00:Z","depth":0,"parameterNumber":3,"parameterNumberName":"V-component_of_WINDS"},"data":[0,0,0,0,0,0,0,0,0,0,0,0,0,0,0,0,0,0,0,0,0,0,0,0,0,0,0,0,0,0,0,0,0,0,0,0,0,0,0,0,0,0,0,0,0,0,0,0,0,0,0,0,0,0,0,0,0,0,2.4313,2.4313,0,2.4317,2.4317,2.4318,2.4289,2.4289,2.4288,2.4287,2.4291,2.4292,2.4293,0,0,0,0,0,0,0,0,0,0,0,0,0,2.4278,2.4279,2.4313,2.4313,2.4313,2.4317,2.4317,2.4318,2.429,2.4289,2.4288,2.4287,2.4291,2.4292,2.4293,0,0,0,0,0,0,0,0,0,0,0,0,0,2.4289,2.4279,2.4313,2.4299,2.4298,2.4317,2.4317,2.4318,2.429,2.4289,2.4287,2.4286,2.4291,2.4292,2.4293,2.4325,0,0,2.4297,2.4297,0,0,0,0,0,0,0,0,2.4288,2.429,2.4301,2.43,2.4299,2.4302,2.4307,2.432,2.429,2.4293,2.4287,2.4286,2.4296,2.4296,2.43,2.4325,2.4325,2.4297,2.4298,2.4298,2.4299,0,0,0,0,0,0,0,2.4288,2.429,2.4315,2.4302,2.43,2.4293,2.4293,2.4309,2.4301,2.4293,2.4291,2.4292,2.4295,2.4299,2.43,2.4325,2.4297,2.4298,2.4299,2.4299,2.4375,2.4376,0,0,0,0,0,0,2.4289,2.429,2.4314,2.4315,2.4291,2.4294,2.4295,2.4302,2.4301,2.4299,2.4293,2.429,2.4297,2.4298,2.43,2.4335,2.4298,2.43,2.43,2.4374,2.4375,2.4376,0,0,0,0,0,0,2.4288,2.4291,2.4314,2.4302,2.4304,2.4296,2.4305,2.4303,2.4307,2.4301,2.4299,2.4298,2.4296,2.4298,2.4318,2.4335,2.43,2.4301,2.4372,2.4374,2.4376,2.4408,0,0,0,0,0,0,2.4287,2.4291,2.4304,2.4302,2.4305,2.4333,2.4306,2.4304,2.4309,2.4306,2.4305,2.4304,2.4295,2.4317,2.432,2.4336,2.4302,2.4371,2.4373,2.4375,2.4405,2.441,2.4415,0,0,0,0,0,2.4286,2.4313,2.4305,2.4308,2.432,2.4334,2.4336,2.4325,2.4311,2.4322,2.4318,2.4304,2.4333,2.4319,2.4322,2.4339,2.4369,2.4372,2.4375,2.4403,2.4409,2.4415,0,0,0,0,0,0,2.4317,2.4312,2.4303,2.433,2.4333,2.433,2.4344,2.4333,2.434,2.4337,2.4323,2.4323,2.4345,2.4345,2.4329,2.4369,2.4349,2.4352,2.4369,2.4375,2.4379,2.4378,2.4303,0,0,0,0,0,2.4327,2.4339,2.4335,2.4359,2.436,2.4352,2.4358,2.435,2.4352,2.4353,2.435,2.4353,2.4362,2.4369,2.4377,2.4405,2.4404,2.4418,2.4423,2.4427,2.443,2.4443,2.4449,2.4386,2.4386,2.4386,0,0,2.4347,2.4346,2.4355,2.4365,2.4366,2.4378,2.4354,2.4368,2.4376,2.4355,2.4374,2.4372,2.4374,2.4398,2.4408,2.4398,2.4447,2.4431,2.4434,2.4435,2.4446,2.4452,2.4458,2.4387,2.4387,2.4387,0,0,2.439,2.4392,2.4411,2.4413,2.4414,2.4409,2.4413,2.4412,2.441,2.4428,2.4412,2.4422,2.4439,2.444,2.4443,2.4486,2.4472,2.4489,2.4514,2.4527,2.4532,2.4536,2.4549,2.4555,2.4492,2.4492,2.4492,0,2.4416,2.4434,2.4422,2.4437,2.4441,2.4423,2.4441,2.4443,2.4448,2.4451,2.4439,2.4459,2.4459,2.4482,2.4492,2.4496,2.45,2.4488,2.4532,2.4536,2.454,2.4553,2.4558,2.4494,2.4494,2.4494,2.4494,0,2.4463,2.4476,2.4491,2.4495,2.4501,2.4518,2.4509,2.4516,2.4508,2.4503,2.4521,2.4521,2.4528,2.4533,2.4525,2.4554,2.4548,2.4535,2.4513,2.4548,2.456,2.4565,2.4497,2.4496,2.4496,2.4495,0,0,2.4525,2.4523,2.4528,2.4529,2.453,2.4539,2.4554,2.4561,2.4567,2.4571,2.4583,2.4597,2.4584,2.4588,2.4579,2.4591,2.4622,2.4576,2.4576,2.4583,2.4653,2.4661,2.4667,2.4614,2.4615,2.4616,2.4652,0,2.4566,2.4592,2.4582,2.4609,2.4619,2.4601,2.4615,2.4616,2.4612,2.462,2.4615,2.4625,2.4609,2.461,2.4621,2.4616,2.4636,2.4614,2.4624,2.4624,2.4622,2.4674,2.4683,2.4717,2.4657,2.4658,2.4658,0,2.4617,2.4621,2.4649,2.4646,2.465,2.4662,2.4667,2.4675,2.4676,2.4672,2.4675,2.4664,2.4678,2.4659,2.4677,2.4662,2.4666,2.4664,2.4665,2.4664,2.4642,2.4672,2.4728,2.4733,2.4665,2.4665,2.4664,0,2.4656,2.467,2.4688,2.469,2.4687,2.4696,2.4695,2.4695,2.4699,2.4703,2.4705,2.4712,2.4715,2.4719,2.471,2.4696,2.4729,2.4709,2.4725,2.4725,2.4731,2.4731,2.4787,2.4737,2.4737,2.4737,2.4737,0,2.4702,2.4719,2.4706,2.4716,2.4734,2.4723,2.4741,2.4738,2.4738,2.4747,2.4733,2.4742,2.473,2.4737,2.473,2.4746,2.4748,2.4744,2.4741,2.4744,2.4744,2.4745,2.4742,2.4738,2.4738,2.4738,2.4737,0,2.4749,2.4741,2.4758,2.4754,2.4754,2.4767,2.4763,2.4773,2.4768,2.4779,2.4782,2.4774,2.4782,2.4773,2.4781,2.4776,2.4796,2.4791,2.4796,2.4793,2.4809,2.4807,2.4866,2.4873,2.4821,2.4821,2.4822,0,2.4777,2.4789,2.4786,2.4791,2.4791,2.48,2.4804,2.4793,2.4798,2.4799,2.4808,2.4815,2.4819,2.4833,2.4828,2.4833,2.4827,2.4847,2.4828,2.483,2.4825,2.4824,2.4824,2.4851,2.4852,2.4852,2.4852,0,2.4828,2.4823,2.4829,2.4834,2.4839,2.4842,2.4844,2.4849,2.4838,2.4844,2.4852,2.4855,2.4863,2.4869,2.4873,2.4872,2.486,2.4859,2.4863,2.4864,2.4866,2.4863,2.4804,2.4857,2.4857,2.4856,2.4856,2.4856,2.4865,2.4874,2.4873,2.488,2.488,2.4883,2.489,2.4886,2.4893,2.4897,2.4891,2.49,2.4899,2.4903,2.4903,2.491,2.4902,2.4907,2.4909,2.491,2.4911,2.4866,2.4911,2.4911,2.4911,2.4911,2.4911,0,2.4913,2.4911,2.4918,2.492,2.4926,2.4915,2.4916,2.4921,2.4929,2.493,2.4935,2.4943,2.4949,2.4944,2.4949,2.4955,2.495,2.4957,2.4955,2.4955,2.492,2.4915,2.4961,2.4961,2.4961,2.4961,2.4961,2.4961,2.4938,2.4953,2.4948,2.4962,2.4961,2.4969,2.4971,2.4972,2.4972,2.4982,2.4987,2.4984,2.4982,2.4986,2.4991,2.4989,2.4991,2.4999,2.4996,2.4962,2.4957,2.4953,2.4948,2.5,2.5,2.503,2.503,2.503]}]]